[[{"header":{"parameterUnit":"m.s-1","parameterCategory":1,"la1":30.2991,"la2":30.254,"lo1":-89.0895,"lo2":-89.0444,"dy":0.0017,"dx":0.0017,"nx":28,"ny":28,"refTime":"2024-10-01T09:00:00:Z","depth":0,"parameterNumber":2,"parameterNumberName":"U-component_of_WINDS"},"data":[0,0,0,0,0,0,0,0,0,0,0,0,0,0,0,0,0,0,0,0,0,0,0,0,0,0,0,0,0,0,0,0,0,0,0,0,0,0,0,0,0,0,0,0,0,0,0,0,0,0,0,0,0,0,0,0,0,0,1.3016,1.3016,0,1.3072,1.3072,1.3073,1.3092,1.3091,1.3091,1.3091,1.3147,1.3148,1.315,0,0,0,0,0,0,0,0,0,0,0,0,0,1.2922,1.2923,1.3016,1.3016,1.3017,1.3072,1.3072,1.3073,1.3092,1.3091,1.3091,1.3091,1.3146,1.3148,1.315,0,0,0,0,0,0,0,0,0,0,0,0,0,1.2968,1.2924,1.3016,1.3033,1.3035,1.3071,1.3072,1.3073,1.3092,1.3091,1.3091,1.3091,1.3145,1.3148,1.315,1.3173,0,0,1.3158,1.3159,0,0,0,0,0,0,0,0,1.2966,1.2972,1.303,1.3032,1.3034,1.3074,1.306,1.3107,1.3092,1.307,1.3091,1.3091,1.3123,1.3127,1.3138,1.3176,1.3178,1.3158,1.316,1.3161,1.3162,0,0,0,0,0,0,0,1.2963,1.297,1.3038,1.3031,1.3033,1.3037,1.3043,1.3069,1.3098,1.3072,1.3074,1.308,1.3124,1.3136,1.314,1.3179,1.3158,1.3161,1.3162,1.3163,1.3235,1.3235,0,0,0,0,0,0,1.2957,1.2967,1.3036,1.3039,1.2999,1.3039,1.3046,1.3062,1.3097,1.3103,1.308,1.3081,1.3132,1.3137,1.3142,1.3169,1.3161,1.3163,1.3165,1.3234,1.3235,1.3235,0,0,0,0,0,0,1.2955,1.2963,1.3034,1.3004,1.3013,1.3041,1.3059,1.3063,1.3075,1.3104,1.3109,1.3087,1.3132,1.3138,1.3165,1.3171,1.3165,1.3167,1.3234,1.3234,1.3235,1.3225,0,0,0,0,0,0,1.2952,1.2962,1.2972,1.3004,1.3014,1.3057,1.3059,1.3064,1.308,1.3081,1.3112,1.3116,1.3132,1.3161,1.3167,1.3175,1.3169,1.3233,1.3234,1.3235,1.3225,1.3225,1.3225,0,0,0,0,0,1.2948,1.2967,1.2972,1.298,1.3027,1.3057,1.3063,1.3081,1.308,1.3089,1.3107,1.3115,1.3169,1.3163,1.3171,1.3179,1.3233,1.3234,1.3235,1.3225,1.3225,1.3225,0,0,0,0,0,0,1.2935,1.2971,1.2978,1.3007,1.3029,1.306,1.3073,1.3081,1.3103,1.3103,1.3124,1.3131,1.3155,1.317,1.3162,1.3202,1.3202,1.3204,1.3191,1.3192,1.3192,1.3188,1.3171,0,0,0,0,0,1.2935,1.2957,1.2988,1.301,1.3021,1.3045,1.3058,1.307,1.3093,1.3102,1.3122,1.3144,1.3165,1.3179,1.3201,1.3227,1.3233,1.3236,1.3236,1.3236,1.3238,1.3251,1.3252,1.3238,1.3238,1.3238,0,0,1.2936,1.2959,1.2972,1.3008,1.3027,1.3047,1.3053,1.3075,1.309,1.3106,1.3132,1.3147,1.3172,1.3197,1.321,1.321,1.3243,1.3237,1.3237,1.3239,1.3252,1.3253,1.3254,1.3239,1.3238,1.3238,0,0,1.2949,1.2969,1.299,1.3007,1.3035,1.305,1.3055,1.3084,1.3095,1.3121,1.3133,1.3151,1.3188,1.3205,1.3218,1.3235,1.3242,1.3241,1.3243,1.3255,1.3256,1.3257,1.3262,1.3263,1.3243,1.3243,1.3243,0,1.2947,1.298,1.2999,1.302,1.3035,1.305,1.307,1.3086,1.3118,1.3128,1.3128,1.3174,1.3192,1.3221,1.3224,1.3235,1.324,1.3238,1.3254,1.3256,1.3257,1.3261,1.3263,1.3242,1.3242,1.3242,1.3242,0,1.2975,1.2998,1.3011,1.3042,1.3058,1.3079,1.3099,1.3113,1.3123,1.3137,1.3163,1.3185,1.321,1.3218,1.3228,1.3247,1.3247,1.325,1.3251,1.3257,1.3262,1.3264,1.3242,1.3242,1.3242,1.3242,0,0,1.2982,1.3022,1.3027,1.304,1.307,1.3087,1.3107,1.3132,1.3143,1.3165,1.3181,1.3211,1.3214,1.3229,1.3241,1.3252,1.3261,1.3254,1.3255,1.3254,1.3283,1.328,1.3282,1.3266,1.3267,1.3267,1.328,0,1.2998,1.3036,1.3052,1.3082,1.3102,1.3115,1.3132,1.3151,1.3165,1.3183,1.3198,1.3219,1.3222,1.3231,1.3242,1.3258,1.3267,1.3257,1.3281,1.3282,1.3274,1.3284,1.3282,1.3293,1.3283,1.3283,1.3283,0,1.3022,1.3043,1.3075,1.3101,1.311,1.3126,1.3149,1.3166,1.3188,1.3197,1.3213,1.3223,1.3243,1.3242,1.3269,1.3261,1.3272,1.3281,1.3282,1.3285,1.3283,1.3287,1.3298,1.3299,1.3286,1.3286,1.3286,0,1.3022,1.3059,1.3082,1.3094,1.3125,1.3135,1.3148,1.317,1.3183,1.3203,1.3211,1.3233,1.3245,1.3261,1.3276,1.3274,1.3302,1.3302,1.3309,1.3308,1.3314,1.3314,1.3326,1.3321,1.3321,1.3321,1.3321,0,1.3038,1.3057,1.3083,1.3097,1.3118,1.3135,1.3155,1.3169,1.3187,1.3203,1.3216,1.323,1.325,1.3267,1.3279,1.3299,1.3304,1.3311,1.3314,1.331,1.3309,1.3318,1.3317,1.3322,1.3322,1.3322,1.3322,0,1.3043,1.3061,1.3087,1.3114,1.3121,1.3135,1.3157,1.3171,1.3185,1.3205,1.321,1.3232,1.3252,1.3269,1.3296,1.3304,1.3324,1.3328,1.3317,1.3318,1.3324,1.3323,1.3342,1.3345,1.3338,1.3338,1.3338,0,1.3051,1.3066,1.3094,1.3106,1.3119,1.3138,1.3152,1.3169,1.3182,1.3207,1.3217,1.3238,1.3256,1.3287,1.3305,1.3324,1.3329,1.3334,1.3332,1.3326,1.3328,1.3327,1.3328,1.3334,1.3334,1.3334,1.3334,0,1.3065,1.3072,1.3092,1.3114,1.313,1.3148,1.3166,1.3175,1.3195,1.3209,1.323,1.3243,1.327,1.329,1.3312,1.3324,1.3332,1.3334,1.3337,1.3333,1.3326,1.3329,1.3317,1.3334,1.3334,1.3334,1.3334,1.3334,1.3071,1.3084,1.3105,1.3126,1.3141,1.3158,1.3171,1.3186,1.3204,1.3228,1.3236,1.3257,1.3277,1.3306,1.3319,1.3334,1.3336,1.3339,1.334,1.3341,1.334,1.3323,1.3338,1.3338,1.3338,1.3338,1.3338,0,1.3084,1.3098,1.3117,1.3142,1.3158,1.3164,1.3184,1.3196,1.3215,1.3232,1.3249,1.3272,1.3291,1.331,1.3329,1.3339,1.3342,1.3343,1.3343,1.3345,1.3338,1.3334,1.334,1.334,1.334,1.334,1.334,1.334,1.3093,1.3114,1.3124,1.3153,1.3167,1.3188,1.3199,1.3213,1.3227,1.3253,1.3269,1.3281,1.3298,1.3319,1.3336,1.3341,1.3348,1.3347,1.3353,1.3346,1.3346,1.3345,1.3341,1.3348,1.3349,1.3358,1.3358,1.3358]},{"header":{"parameterUnit":"m.s-1","parameterCategory":1,"la1":30.2991,"la2":30.254,"lo1":-89.0895,"lo2":-89.0444,"dy":0.0017,"dx":0.0017,"nx":28,"ny":28,"refTime":"2024-10-01T09:00:00:Z","depth":0,"parameterNumber":3,"parameterNumberName":"V-component_of_WINDS"},"data":[0,0,0,0,0,0,0,0,0,0,0,0,0,0,0,0,0,0,0,0,0,0,0,0,0,0,0,0,0,0,0,0,0,0,0,0,0,0,0,0,0,0,0,0,0,0,0,0,0,0,0,0,0,0,0,0,0,0,1.7814,1.7814,0,1.7798,1.7798,1.7798,1.778,1.7779,1.7779,1.7779,1.7761,1.776,1.776,0,0,0,0,0,0,0,0,0,0,0,0,0,1.7828,1.7827,1.7814,1.7814,1.7814,1.7798,1.7798,1.7798,1.778,1.7779,1.7779,1.7779,1.7761,1.776,1.776,0,0,0,0,0,0,0,0,0,0,0,0,0,1.7818,1.7827,1.7814,1.7803,1.7802,1.7798,1.7798,1.7798,1.778,1.7779,1.7779,1.7779,1.7761,1.776,1.776,1.7766,0,0,1.7759,1.7759,0,0,0,0,0,0,0,0,1.7818,1.7817,1.7805,1.7804,1.7803,1.779,1.7796,1.7787,1.778,1.7788,1.7779,1.7778,1.7771,1.777,1.7767,1.7765,1.7764,1.7759,1.7759,1.7758,1.7758,0,0,0,0,0,0,0,1.7819,1.7818,1.7808,1.7805,1.7803,1.7798,1.7796,1.7794,1.7782,1.7787,1.7786,1.7784,1.777,1.7768,1.7767,1.7764,1.7759,1.7759,1.7758,1.7758,1.7762,1.7762,0,0,0,0,0,0,1.7822,1.7818,1.7808,1.7807,1.781,1.7798,1.7796,1.7795,1.7782,1.7779,1.7785,1.7784,1.7768,1.7767,1.7766,1.777,1.7759,1.7758,1.7758,1.7762,1.7762,1.7763,0,0,0,0,0,0,1.7822,1.7821,1.7809,1.7812,1.7811,1.7798,1.7797,1.7795,1.7792,1.778,1.7777,1.7785,1.7768,1.7766,1.7765,1.7769,1.7758,1.7758,1.7761,1.7762,1.7762,1.7779,0,0,0,0,0,0,1.7822,1.7821,1.7824,1.7813,1.7811,1.781,1.7797,1.7795,1.7792,1.779,1.7779,1.7777,1.7768,1.7766,1.7765,1.7768,1.7757,1.7761,1.7762,1.7762,1.7778,1.778,1.7782,0,0,0,0,0,1.7823,1.7829,1.7824,1.7823,1.7814,1.781,1.7809,1.7798,1.7792,1.7794,1.7786,1.7777,1.7769,1.7766,1.7765,1.7768,1.7761,1.7762,1.7762,1.7777,1.778,1.7782,0,0,0,0,0,0,1.7841,1.7828,1.7822,1.7825,1.7819,1.7807,1.7809,1.7801,1.7796,1.7795,1.7782,1.778,1.7779,1.7774,1.7771,1.7772,1.7763,1.7764,1.7775,1.7778,1.7779,1.778,1.7757,0,0,0,0,0,1.7846,1.7844,1.7832,1.7836,1.7833,1.7822,1.782,1.7812,1.7805,1.7802,1.7794,1.7787,1.7782,1.778,1.7775,1.7777,1.7774,1.7779,1.7781,1.7782,1.7782,1.7781,1.7783,1.7765,1.7765,1.7765,0,0,1.7855,1.7847,1.7847,1.784,1.7834,1.7832,1.782,1.7819,1.7816,1.7802,1.78,1.7794,1.7784,1.7784,1.7784,1.778,1.7786,1.7783,1.7784,1.7784,1.7782,1.7784,1.7785,1.7765,1.7765,1.7765,0,0,1.787,1.7865,1.7866,1.7861,1.7852,1.7844,1.7845,1.7834,1.7829,1.7827,1.7815,1.7812,1.7805,1.7799,1.7794,1.7805,1.7796,1.7804,1.7813,1.7812,1.7813,1.7815,1.7817,1.7818,1.7804,1.7805,1.7805,0,1.7882,1.7879,1.7868,1.7867,1.7863,1.785,1.7851,1.7846,1.7836,1.7833,1.7829,1.7818,1.7812,1.7809,1.7811,1.7809,1.7808,1.7805,1.7814,1.7815,1.7816,1.7818,1.7819,1.7805,1.7805,1.7805,1.7805,0,1.7893,1.7891,1.7894,1.7884,1.7881,1.7881,1.7869,1.7867,1.7859,1.7851,1.7848,1.7839,1.7832,1.7831,1.7823,1.7826,1.7824,1.7817,1.7808,1.7819,1.7821,1.7821,1.7807,1.7806,1.7806,1.7806,0,0,1.792,1.7904,1.7905,1.79,1.7888,1.7886,1.7885,1.7878,1.7875,1.7868,1.7866,1.7859,1.7853,1.7848,1.7839,1.7839,1.7846,1.7832,1.7831,1.7833,1.7846,1.7851,1.7852,1.784,1.784,1.784,1.7847,0,1.7932,1.7929,1.7919,1.7919,1.7916,1.7902,1.7901,1.7893,1.7885,1.7881,1.7872,1.7867,1.7859,1.7856,1.7855,1.7845,1.7848,1.7845,1.7836,1.7836,1.7838,1.7853,1.7858,1.7865,1.7847,1.7848,1.7848,0,1.7946,1.794,1.794,1.7927,1.7925,1.7924,1.7916,1.7912,1.7902,1.7897,1.7891,1.7881,1.7877,1.787,1.7864,1.7862,1.7857,1.7852,1.7852,1.785,1.7842,1.7851,1.7867,1.7868,1.7849,1.7849,1.7849,0,1.7964,1.7955,1.7953,1.795,1.7935,1.7935,1.7928,1.7919,1.7914,1.7907,1.7903,1.7896,1.7891,1.7884,1.7872,1.7868,1.7867,1.7859,1.7861,1.7861,1.7861,1.7861,1.7876,1.786,1.786,1.786,1.786,0,1.7978,1.7977,1.7961,1.796,1.7959,1.7946,1.7945,1.7938,1.7929,1.7925,1.7913,1.7909,1.7894,1.7889,1.7879,1.7874,1.7873,1.7867,1.7864,1.7868,1.7868,1.7864,1.7863,1.786,1.786,1.786,1.786,0,1.7997,1.7986,1.7983,1.7969,1.7966,1.7965,1.7953,1.7951,1.7942,1.7937,1.7935,1.7921,1.7914,1.7902,1.7891,1.7884,1.7881,1.7877,1.7884,1.7882,1.7885,1.7884,1.7897,1.7897,1.7882,1.7882,1.7882,0,1.8006,1.8005,1.7992,1.7988,1.7983,1.7978,1.7973,1.796,1.7956,1.7944,1.7943,1.7935,1.7927,1.7916,1.7904,1.7895,1.789,1.7895,1.7888,1.7891,1.7888,1.7888,1.7888,1.7896,1.7896,1.7897,1.7897,0,1.8023,1.8017,1.8011,1.8003,1.7998,1.7991,1.7983,1.7981,1.7966,1.7962,1.7954,1.7949,1.7937,1.7928,1.7917,1.791,1.79,1.7899,1.7899,1.7902,1.7906,1.7902,1.7887,1.7899,1.7898,1.7898,1.7898,1.7898,1.8036,1.8034,1.8024,1.8018,1.8011,1.8003,1.8,1.7991,1.7984,1.7974,1.7967,1.7959,1.7948,1.7932,1.7925,1.7918,1.7914,1.7914,1.7914,1.7914,1.7915,1.7907,1.7916,1.7916,1.7916,1.7916,1.7916,0,1.8051,1.8044,1.8038,1.8027,1.8022,1.8014,1.8005,1.8,1.7994,1.7985,1.7978,1.7968,1.7959,1.7946,1.7936,1.7933,1.7928,1.7931,1.7931,1.7929,1.792,1.792,1.7935,1.7935,1.7935,1.7935,1.7935,1.7935,1.8058,1.8054,1.8047,1.804,1.8032,1.8025,1.802,1.8013,1.8005,1.7995,1.7988,1.798,1.7968,1.7957,1.7948,1.7945,1.7941,1.7945,1.7939,1.7931,1.793,1.7928,1.7928,1.7944,1.7944,1.7949,1.7949,1.7949]}]]